| time (UTC) | temp F | wind direction | speed knots | gust knots | rain 1hr in | rain 24hr in | rain mn in | humidity % | barometer mb |
| 20260906064205 | 64 | 360 | 0.0 | 0.0 | 0.00 | 0.00 | 0.00 | 91 | 1015.2 |
| 20260906063203 | 64 | 360 | 0.0 | 0.0 | 0.00 | 0.00 | 0.00 | 91 | 1015.1 |
| 20260906062204 | 64 | 360 | 0.0 | 0.0 | 0.00 | 0.00 | 0.00 | 91 | 1015.1 |
| 20260906061203 | 64 | 360 | 0.0 | 0.0 | 0.00 | 0.00 | 0.00 | 91 | 1015.2 |
| 20260906060205 | 64 | 360 | 0.0 | 0.0 | 0.00 | 0.00 | 0.00 | 91 | 1015.1 |
| 20260906055204 | 64 | 360 | 0.0 | 0.0 | 0.00 | 0.00 | 0.00 | 91 | 1015.2 |
| 20260906054205 | 64 | 360 | 0.0 | 0.0 | 0.00 | 0.00 | 0.00 | 91 | 1015.2 |
| 20260906053204 | 64 | 360 | 0.0 | 0.0 | 0.00 | 0.00 | 0.00 | 90 | 1015.2 |
| 20260906052203 | 64 | 360 | 0.0 | 0.0 | 0.00 | 0.00 | 0.00 | 90 | 1015.2 |
| 20260906051206 | 64 | 360 | 0.0 | 0.0 | 0.00 | 0.00 | 0.00 | 90 | 1015.0 |
| 20260906050225 | 64 | 360 | 0.0 | 0.0 | 0.00 | 0.00 | 0.00 | 90 | 1015.0 |
| 20260906045225 | 64 | 360 | 0.0 | 0.0 | 0.00 | 0.00 | 0.00 | 90 | 1015.0 |
| 20260906044204 | 64 | 360 | 0.0 | 0.0 | 0.00 | 0.00 | 0.00 | 89 | 1015.0 |
| 20260906043203 | 64 | 360 | 0.0 | 0.0 | 0.00 | 0.00 | 0.00 | 89 | 1014.9 |
| 20260906042204 | 64 | 360 | 0.0 | 0.0 | 0.00 | 0.00 | 0.00 | 89 | 1015.0 |
| 20260906041203 | 64 | 360 | 0.0 | 0.0 | 0.00 | 0.00 | 0.00 | 89 | 1014.9 |
| 20260906040225 | 64 | 360 | 0.0 | 0.0 | 0.00 | 0.00 | 0.00 | 89 | 1014.8 |
| 20260906035205 | 64 | 360 | 0.0 | 0.0 | 0.00 | 0.00 | 0.00 | 89 | 1014.9 |
| 20260906034224 | 64 | 360 | 0.0 | 0.0 | 0.00 | 0.00 | 0.00 | 89 | 1014.9 |
| 20260906033203 | 64 | 360 | 0.0 | 0.0 | 0.00 | 0.00 | 0.00 | 88 | 1014.8 |
| 20260906032204 | 64 | 360 | 0.0 | 0.0 | 0.00 | 0.00 | 0.00 | 88 | 1014.7 |
| 20260906031204 | 64 | 360 | 0.0 | 0.0 | 0.00 | 0.00 | 0.00 | 88 | 1014.7 |
| 20260906030203 | 64 | 360 | 0.0 | 0.0 | 0.00 | 0.00 | 0.00 | 87 | 1014.6 |
| 20260906025205 | 64 | 360 | 0.0 | 0.0 | 0.00 | 0.00 | 0.00 | 87 | 1014.6 |
| 20260906024205 | 64 | 360 | 0.0 | 0.0 | 0.00 | 0.00 | 0.00 | 87 | 1014.7 |
| 20260906023203 | 64 | 360 | 0.0 | 0.0 | 0.00 | 0.00 | 0.00 | 86 | 1014.7 |
| 20260906022225 | 64 | 360 | 0.0 | 0.0 | 0.00 | 0.00 | 0.00 | 85 | 1014.6 |
| 20260906021225 | 64 | 360 | 0.0 | 0.0 | 0.00 | 0.00 | 0.00 | 84 | 1014.7 |
| 20260906015203 | 64 | 360 | 0.0 | 0.0 | 0.00 | 0.00 | 0.00 | 83 | 1014.4 |
| 20260906014205 | 64 | 360 | 0.0 | 0.0 | 0.00 | 0.00 | 0.00 | 82 | 1014.5 |
| 20260906013203 | 65 | 360 | 0.0 | 0.0 | 0.00 | 0.00 | 0.00 | 82 | 1014.4 |
| 20260906012225 | 65 | 360 | 0.0 | 0.0 | 0.00 | 0.00 | 0.00 | 82 | 1014.3 |
| 20260906011204 | 65 | 360 | 0.0 | 0.0 | 0.00 | 0.00 | 0.00 | 81 | 1014.3 |
| 20260906010204 | 66 | 360 | 0.0 | 0.0 | 0.00 | 0.00 | 0.00 | 81 | 1014.2 |
| 20260906005203 | 66 | 360 | 0.0 | 0.0 | 0.00 | 0.00 | 0.00 | 78 | 1014.1 |
| 20260906004204 | 66 | 360 | 0.0 | 0.0 | 0.00 | 0.00 | 0.00 | 78 | 1014.0 |
| 20260906003203 | 67 | 360 | 0.0 | 0.0 | 0.00 | 0.00 | 0.00 | 77 | 1014.1 |
| 20260906002204 | 67 | 360 | 0.0 | 0.0 | 0.00 | 0.00 | 0.00 | 76 | 1014.0 |
| 20260906001226 | 68 | 360 | 0.0 | 0.0 | 0.00 | 0.00 | 0.00 | 74 | 1013.9 |
| 20260906000226 | 68 | 360 | 0.0 | 0.0 | 0.00 | 0.00 | 0.00 | 74 | 1013.8 |
| 20260905235225 | 69 | 360 | 0.0 | 0.0 | 0.00 | 0.00 | 0.00 | 73 | 1013.8 |
| 20260905234226 | 70 | 360 | 0.0 | 0.0 | 0.00 | 0.00 | 0.00 | 70 | 1013.9 |
| 20260905233203 | 71 | 360 | 0.0 | 0.0 | 0.00 | 0.00 | 0.00 | 69 | 1014.0 |
| 20260905232204 | 72 | 360 | 0.0 | 0.0 | 0.00 | 0.00 | 0.00 | 68 | 1014.0 |
| 20260905231203 | 72 | 359 | 0.0 | 2.6 | 0.00 | 0.00 | 0.00 | 67 | 1013.9 |
| 20260905230204 | 72 | 359 | 0.0 | 4.3 | 0.00 | 0.00 | 0.00 | 66 | 1014.0 |
| 20260905225204 | 73 | 359 | 2.6 | 4.3 | 0.00 | 0.00 | 0.00 | 64 | 1013.9 |
| 20260905224204 | 73 | 359 | 2.6 | 5.2 | 0.00 | 0.00 | 0.00 | 64 | 1013.9 |
| 20260905223205 | 73 | 359 | 0.0 | 1.7 | 0.00 | 0.00 | 0.00 | 64 | 1013.8 |
| 20260905222203 | 73 | 359 | 2.6 | 5.2 | 0.00 | 0.00 | 0.00 | 64 | 1013.8 |
| 20260905221204 | 73 | 359 | 2.6 | 5.2 | 0.00 | 0.00 | 0.00 | 64 | 1013.9 |
| 20260905215204 | 73 | 360 | 0.0 | 3.5 | 0.00 | 0.00 | 0.00 | 65 | 1013.7 |
| 20260905214204 | 73 | 360 | 0.0 | 3.5 | 0.00 | 0.00 | 0.00 | 64 | 1013.6 |
| 20260905213204 | 73 | 359 | 2.6 | 7.8 | 0.00 | 0.00 | 0.00 | 64 | 1013.6 |
| 20260905212204 | 74 | 359 | 2.6 | 7.0 | 0.00 | 0.00 | 0.00 | 63 | 1013.5 |
| 20260905211204 | 74 | 359 | 0.9 | 7.0 | 0.00 | 0.00 | 0.00 | 64 | 1013.5 |
| 20260905210225 | 74 | 359 | 4.3 | 8.7 | 0.00 | 0.00 | 0.00 | 63 | 1013.4 |
| 20260905205206 | 74 | 359 | 2.6 | 7.8 | 0.00 | 0.00 | 0.00 | 63 | 1013.4 |
| 20260905204204 | 75 | 359 | 0.9 | 8.7 | 0.00 | 0.00 | 0.00 | 64 | 1013.4 |
| 20260905203205 | 74 | 359 | 0.9 | 5.2 | 0.00 | 0.00 | 0.00 | 64 | 1013.4 |
| 20260905202204 | 74 | 359 | 2.6 | 7.0 | 0.00 | 0.00 | 0.00 | 64 | 1013.4 |
| 20260905201203 | 73 | 359 | 2.6 | 4.3 | 0.00 | 0.00 | 0.00 | 64 | 1013.4 |
| 20260905200204 | 73 | 359 | 3.5 | 7.0 | 0.00 | 0.00 | 0.00 | 66 | 1013.5 |
| 20260905195203 | 73 | 360 | 0.0 | 3.5 | 0.00 | 0.00 | 0.00 | 65 | 1013.5 |
| 20260905194225 | 74 | 359 | 0.0 | 8.7 | 0.00 | 0.00 | 0.00 | 64 | 1013.6 |
| 20260905193225 | 74 | 359 | 3.5 | 7.0 | 0.00 | 0.00 | 0.00 | 64 | 1013.5 |
| 20260905192204 | 73 | 360 | 0.0 | 4.3 | 0.00 | 0.00 | 0.00 | 65 | 1013.5 |
| 20260905191204 | 74 | 359 | 0.0 | 5.2 | 0.00 | 0.00 | 0.00 | 65 | 1013.7 |
| 20260905190203 | 76 | 359 | 3.5 | 7.0 | 0.00 | 0.00 | 0.00 | 63 | 1013.9 |
| 20260905185204 | 76 | 1 | 0.9 | 7.0 | 0.00 | 0.00 | 0.00 | 63 | 1013.9 |
| 20260905184204 | 76 | 359 | 3.5 | 5.2 | 0.00 | 0.00 | 0.00 | 63 | 1014.0 |
| 20260905183204 | 76 | 359 | 2.6 | 9.6 | 0.00 | 0.00 | 0.00 | 62 | 1013.9 |
| 20260905182204 | 76 | 359 | 2.6 | 8.7 | 0.00 | 0.00 | 0.00 | 64 | 1013.9 |
| 20260905181225 | 76 | 359 | 0.9 | 5.2 | 0.00 | 0.00 | 0.00 | 64 | 1013.7 |
| 20260905180203 | 75 | 7 | 1.7 | 4.3 | 0.00 | 0.00 | 0.00 | 67 | 1013.6 |
| 20260905175203 | 75 | 360 | 0.0 | 3.5 | 0.00 | 0.00 | 0.00 | 66 | 1013.7 |
| 20260905174205 | 75 | 0 | 0.9 | 7.0 | 0.00 | 0.00 | 0.00 | 66 | 1013.6 |
| 20260905173204 | 74 | 359 | 2.6 | 9.6 | 0.00 | 0.00 | 0.00 | 66 | 1013.7 |
| 20260905172225 | 74 | 359 | 2.6 | 4.3 | 0.00 | 0.00 | 0.00 | 66 | 1013.7 |
| 20260905171205 | 74 | 359 | 1.7 | 7.8 | 0.00 | 0.00 | 0.00 | 65 | 1013.8 |
| 20260905170204 | 74 | 359 | 1.7 | 5.2 | 0.00 | 0.00 | 0.00 | 66 | 1013.7 |
| 20260905165203 | 74 | 359 | 2.6 | 8.7 | 0.00 | 0.00 | 0.00 | 67 | 1013.8 |
| 20260905164226 | 73 | 359 | 2.6 | 9.6 | 0.00 | 0.00 | 0.00 | 68 | 1013.7 |
| 20260905163203 | 73 | 359 | 2.6 | 4.3 | 0.00 | 0.00 | 0.00 | 73 | 1013.8 |
| 20260905162204 | 73 | 359 | 0.9 | 7.0 | 0.00 | 0.00 | 0.00 | 71 | 1013.9 |
| 20260905161226 | 72 | 359 | 2.6 | 5.2 | 0.00 | 0.00 | 0.00 | 73 | 1013.8 |
| 20260905160205 | 72 | 1 | 4.3 | 10.4 | 0.00 | 0.00 | 0.00 | 74 | 1013.9 |
| 20260905155204 | 71 | 0 | 3.5 | 9.6 | 0.00 | 0.00 | 0.00 | 74 | 1014.0 |
| 20260905154203 | 71 | 0 | 3.5 | 7.8 | 0.00 | 0.00 | 0.00 | 76 | 1014.0 |
| 20260905153204 | 70 | 359 | 0.0 | 5.2 | 0.00 | 0.00 | 0.00 | 77 | 1013.9 |
| 20260905152224 | 70 | 0 | 1.7 | 5.2 | 0.00 | 0.00 | 0.00 | 78 | 1014.0 |
| 20260905151205 | 70 | 359 | 1.7 | 7.8 | 0.00 | 0.00 | 0.00 | 80 | 1014.2 |
| 20260905150204 | 69 | 359 | 4.3 | 8.7 | 0.00 | 0.00 | 0.00 | 80 | 1014.2 |
| 20260905145226 | 68 | 359 | 1.7 | 8.7 | 0.00 | 0.00 | 0.00 | 82 | 1014.1 |
| 20260905144204 | 67 | 359 | 0.9 | 4.3 | 0.00 | 0.00 | 0.00 | 83 | 1014.1 |
| 20260905143225 | 67 | 359 | 0.9 | 4.3 | 0.00 | 0.00 | 0.00 | 84 | 1014.1 |
| 20260905142203 | 67 | 360 | 0.0 | 3.5 | 0.00 | 0.00 | 0.00 | 85 | 1014.1 |
| 20260905141204 | 66 | 359 | 0.0 | 4.3 | 0.00 | 0.00 | 0.00 | 88 | 1014.1 |
| 20260905140203 | 66 | 2 | 1.7 | 7.0 | 0.00 | 0.00 | 0.00 | 89 | 1014.1 |
| 20260905135205 | 65 | 359 | 3.5 | 5.2 | 0.00 | 0.00 | 0.00 | 91 | 1014.2 |
| 20260905134203 | 65 | 359 | 0.0 | 2.6 | 0.00 | 0.00 | 0.00 | 93 | 1014.1 |
| 20260905133204 | 65 | 2 | 0.9 | 4.3 | 0.00 | 0.00 | 0.00 | 94 | 1014.2 |
| 20260905132203 | 65 | 359 | 0.0 | 3.5 | 0.00 | 0.00 | 0.00 | 94 | 1014.1 |
| 20260905131205 | 64 | 359 | 0.0 | 4.3 | 0.00 | 0.00 | 0.00 | 94 | 1014.2 |
| 20260905130204 | 64 | 359 | 0.0 | 2.6 | 0.00 | 0.00 | 0.00 | 95 | 1014.3 |
| 20260905125203 | 63 | 359 | 0.9 | 3.5 | 0.00 | 0.00 | 0.00 | 95 | 1014.2 |
| 20260905124204 | 63 | 359 | 0.0 | 1.7 | 0.00 | 0.00 | 0.00 | 95 | 1014.3 |
| 20260905123203 | 62 | 359 | 0.0 | 1.7 | 0.00 | 0.00 | 0.00 | 95 | 1014.3 |
| 20260905122206 | 62 | 360 | 0.0 | 0.9 | 0.00 | 0.00 | 0.00 | 94 | 1014.3 |
| 20260905121204 | 61 | 360 | 0.0 | 0.0 | 0.00 | 0.00 | 0.00 | 94 | 1014.4 |
| 20260905115204 | 60 | 360 | 0.0 | 0.0 | 0.00 | 0.00 | 0.00 | 94 | 1014.2 |
| 20260905114204 | 60 | 360 | 0.0 | 0.0 | 0.00 | 0.00 | 0.00 | 94 | 1014.1 |
| 20260905113205 | 59 | 360 | 0.0 | 0.0 | 0.00 | 0.00 | 0.00 | 94 | 1014.0 |
| 20260905112205 | 59 | 360 | 0.0 | 0.0 | 0.00 | 0.00 | 0.00 | 94 | 1013.8 |
| 20260905110205 | 59 | 360 | 0.0 | 0.0 | 0.00 | 0.00 | 0.00 | 94 | 1013.6 |
| 20260905105227 | 59 | 360 | 0.0 | 0.0 | 0.00 | 0.00 | 0.00 | 94 | 1013.5 |
| 20260905104205 | 59 | 360 | 0.0 | 0.0 | 0.00 | 0.00 | 0.00 | 94 | 1013.5 |
| 20260905103247 | 59 | 360 | 0.0 | 0.0 | 0.00 | 0.00 | 0.00 | 94 | 1013.3 |
| 20260905102203 | 59 | 360 | 0.0 | 0.0 | 0.00 | 0.00 | 0.00 | 93 | 1013.4 |
| 20260905101205 | 59 | 360 | 0.0 | 0.0 | 0.00 | 0.00 | 0.00 | 93 | 1013.6 |
| 20260905100205 | 59 | 360 | 0.0 | 0.0 | 0.00 | 0.00 | 0.00 | 93 | 1013.3 |
| 20260905095203 | 59 | 360 | 0.0 | 0.0 | 0.00 | 0.00 | 0.00 | 93 | 1013.5 |
| 20260905094204 | 60 | 360 | 0.0 | 0.0 | 0.00 | 0.00 | 0.00 | 93 | 1013.3 |
| 20260905093203 | 60 | 360 | 0.0 | 0.0 | 0.00 | 0.00 | 0.00 | 93 | 1013.3 |
| 20260905092204 | 60 | 360 | 0.0 | 0.0 | 0.00 | 0.00 | 0.00 | 93 | 1013.1 |
| 20260905091203 | 60 | 360 | 0.0 | 0.0 | 0.00 | 0.00 | 0.00 | 93 | 1013.1 |
| 20260905090204 | 60 | 360 | 0.0 | 0.0 | 0.00 | 0.00 | 0.00 | 93 | 1012.8 |
| 20260905085203 | 60 | 360 | 0.0 | 0.0 | 0.00 | 0.00 | 0.00 | 93 | 1012.9 |
| 20260905084205 | 61 | 360 | 0.0 | 0.0 | 0.00 | 0.00 | 0.00 | 93 | 1012.6 |
| 20260905083205 | 61 | 360 | 0.0 | 0.0 | 0.00 | 0.00 | 0.00 | 93 | 1012.7 |
| 20260905082206 | 61 | 360 | 0.0 | 0.0 | 0.00 | 0.00 | 0.00 | 93 | 1012.5 |
| 20260905081205 | 61 | 360 | 0.0 | 0.0 | 0.00 | 0.00 | 0.00 | 93 | 1012.6 |
| 20260905080203 | 61 | 360 | 0.0 | 0.0 | 0.00 | 0.00 | 0.00 | 93 | 1012.6 |
| 20260905075204 | 61 | 360 | 0.0 | 0.0 | 0.00 | 0.00 | 0.00 | 93 | 1012.7 |
| 20260905074203 | 61 | 360 | 0.0 | 0.0 | 0.00 | 0.00 | 0.00 | 93 | 1012.8 |
| 20260905073227 | 62 | 360 | 0.0 | 0.0 | 0.00 | 0.00 | 0.00 | 93 | 1012.8 |
| 20260905072206 | 62 | 360 | 0.0 | 0.0 | 0.00 | 0.00 | 0.00 | 92 | 1012.9 |
| 20260905071204 | 62 | 360 | 0.0 | 0.0 | 0.00 | 0.00 | 0.00 | 93 | 1012.9 |
| 20260905070204 | 62 | 360 | 0.0 | 0.0 | 0.00 | 0.00 | 0.00 | 92 | 1013.0 |
| 20260905065205 | 62 | 360 | 0.0 | 0.0 | 0.00 | 0.00 | 0.00 | 92 | 1013.1 |